Pituffik, Greenland

2:21 PM AST on January 16, 2018 (GMT -0400)
Thule Air Base

Weather History for BGTL - January, 2013

Change the Weather History Date:

Saturday, January 5, 2013

  Actual Average Record
Temperature  
Mean Temperature -9 °F -  
Max Temperature 0 °F -2 °F 19 °F (1998)
Min Temperature -18 °F -17 °F -28 °F (2008)
Degree Days  
Heating Degree Days 74    
Moisture  
Dew Point -19 °F    
Average Humidity 66    
Maximum Humidity 78    
Minimum Humidity 53    
Precipitation  
Precipitation 0.00 in 0.01 in - ()
Sea Level Pressure  
Sea Level Pressure 29.20 in    
Wind  
Wind Speed 9 mph ()    
Max Wind Speed 17 mph    
Max Gust Speed -    
Visibility 6.2 miles    
Events      
Averages and records for this station are not official NWS values.
T = Trace of Precipitation, MM = Missing Value Source: Averaged Metar Reports

Daily Weather History Graph

Daily Weather History Graph

Search for Another Location

Airport or City:

Trip Planner

Search our weather history database for the weather conditions in past years. The results will help you decide how hot, cold, wet, or windy it might be!

Date:

Astronomy

Dec. 31, 1969 Rise Set
Actual Time Sun does not rise Sun does not rise
Civil Twilight Sun does not rise Sun does not rise
Nautical Twilight 10:00 AM AST 3:21 PM AST
Astronomical Twilight 7:49 AM AST 5:32 PM AST
Moon 3:37 AM AST (1/5) 9:14 AM AST (1/5)
Length of Visible Light 0h 00m
Length of Day
0h 00m
Last Quarter, 44% of the Moon is Illuminated
Jan 5
Last Quarter
Jan 11
New
Jan 18
First Quarter
Jan 27
Full
Feb 3
Last Quarter

Hourly Weather History & Observations

Time (AST) Temp. Windchill Dew Point Humidity Pressure Visibility Wind Dir Wind Speed Gust Speed Precip Events Conditions
12:58 AM -15.7 °F -33.3 °F -28.3 °F 53% 29.07 in 6.2 mi East 8.1 mph - N/A   Clear
1:58 AM -17.9 °F -38.4 °F -29.9 °F 54% 29.06 in 6.2 mi East 10.4 mph - N/A   Clear
2:58 AM -14.3 °F -33.9 °F -25.6 °F 57% 29.05 in 6.2 mi East 10.4 mph - N/A   Clear
3:58 AM -13.9 °F -34.5 °F -26.3 °F 54% 29.05 in 6.2 mi East 11.5 mph - N/A   Clear
4:58 AM -15.9 °F -38.0 °F -26.0 °F 60% 29.03 in 6.2 mi East 12.7 mph - N/A   Clear
5:58 AM -17.7 °F -34.2 °F -25.6 °F 67% 29.00 in 6.2 mi East 6.9 mph - N/A   Clear
6:58 AM -16.8 °F -37.1 °F -24.7 °F 67% 29.00 in 6.2 mi East 10.4 mph - N/A   Clear
7:58 AM -17.0 °F -37.3 °F -24.7 °F 68% 28.98 in 6.2 mi East 10.4 mph - N/A   Clear
8:58 AM -16.8 °F -39.1 °F -23.8 °F 70% 28.98 in 6.2 mi East 12.7 mph - N/A   Clear
9:58 AM -17.5 °F -38.0 °F -24.5 °F 70% 28.98 in 6.2 mi East 10.4 mph - N/A   Clear
10:58 AM -18.4 °F -41.2 °F -25.6 °F 70% 29.00 in 6.2 mi East 12.7 mph - N/A   Clear
11:58 AM -14.6 °F -32.0 °F -23.1 °F 66% 29.01 in 6.2 mi East 8.1 mph - N/A   Clear
12:58 PM -18.9 °F -42.8 °F -28.1 °F 63% 29.04 in 6.2 mi East 13.8 mph - N/A   Clear
1:58 PM -15.3 °F -36.3 °F -25.8 °F 59% 29.07 in 6.2 mi East 11.5 mph - N/A   Clear
2:58 PM -17.0 °F -42.6 °F -27.6 °F 59% 29.12 in 6.2 mi East 17.3 mph - N/A   Clear
3:58 PM -11.0 °F -30.9 °F -21.3 °F 61% 29.18 in 6.2 mi ENE 11.5 mph - N/A   Clear
4:58 PM -6.2 °F -21.7 °F -15.7 °F 63% 29.23 in 6.2 mi ENE 8.1 mph - N/A   Clear
5:58 PM -4.9 °F -20.1 °F -12.1 °F 71% 29.29 in 6.2 mi SE 8.1 mph - N/A   Clear
6:30 PM -4.0 °F -17.8 °F -11.2 °F 71% 29.33 in 6.2 mi South 6.9 mph - N/A   Mostly Cloudy
6:58 PM -3.8 °F -21.9 °F -11.9 °F 68% 29.33 in 6.2 mi East 11.5 mph - N/A   Overcast
7:58 PM -4.5 °F -16.9 °F -13.7 °F 65% 29.37 in 6.2 mi ENE 5.8 mph - N/A   Overcast
8:17 PM -4.0 °F -17.8 °F -11.2 °F 71% 29.40 in 6.2 mi East 6.9 mph - N/A   Scattered Clouds
8:21 PM -4.0 °F -17.8 °F -13.0 °F 65% 29.41 in 6.2 mi ENE 6.9 mph - N/A   Scattered Clouds
8:55 PM -4.0 °F -25.2 °F -9.4 °F 78% 29.42 in 6.2 mi SE 16.1 mph - N/A   Mostly Cloudy
8:58 PM -4.4 °F -26.3 °F -10.7 °F 74% 29.40 in 6.2 mi ESE 17.3 mph - N/A   Mostly Cloudy
9:58 PM 0.5 °F -13.6 °F -7.4 °F 69% 29.44 in 6.2 mi ESE 8.1 mph - N/A   Overcast
10:34 PM -4.0 °F -22.1 °F -11.2 °F 71% 29.47 in 6.2 mi SE 11.5 mph - N/A   Scattered Clouds
10:58 PM -3.5 °F -20.5 °F -10.8 °F 71% 29.46 in 6.2 mi SE 10.4 mph - N/A   Clear
11:52 PM -0.4 °F -12.0 °F -7.6 °F 72% 29.49 in 6.2 mi ESE 5.8 mph - N/A   Mostly Cloudy
11:58 PM 0.1 °F -11.4 °F -8.5 °F 67% 29.47 in 6.2 mi East 5.8 mph - N/A   Mostly Cloudy